| time (UTC) | temp F | wind direction | speed MPH | gust MPH | rain 1hr in | rain 24hr in | rain mn in | humidity % | barometer mb |
| 20260901112554 | 77 | 82 | 6.0 | 7.0 | 0.00 | 0.00 | 0.00 | 33 | 1014.2 |
| 20260901112054 | 77 | 78 | 3.0 | 7.0 | 0.00 | 0.00 | 0.00 | 34 | 1014.3 |
| 20260901111554 | 77 | 76 | 3.0 | 8.0 | 0.00 | 0.00 | 0.00 | 35 | 1014.3 |
| 20260901110054 | 78 | 79 | 3.0 | 8.0 | 0.00 | 0.00 | 0.00 | 33 | 1014.3 |
| 20260901104555 | 78 | 80 | 6.0 | 8.0 | 0.00 | 0.00 | 0.00 | 32 | 1014.2 |
| 20260901103554 | 78 | 81 | 3.0 | 8.0 | 0.00 | 0.00 | 0.00 | 31 | 1014.3 |
| 20260901103054 | 78 | 78 | 3.0 | 7.0 | 0.00 | 0.00 | 0.00 | 30 | 1014.2 |
| 20260901102054 | 78 | 67 | 5.0 | 9.0 | 0.00 | 0.00 | 0.00 | 29 | 1014.2 |
| 20260901101554 | 78 | 81 | 6.0 | 8.0 | 0.00 | 0.00 | 0.00 | 28 | 1014.2 |
| 20260901100554 | 78 | 66 | 4.0 | 7.0 | 0.00 | 0.00 | 0.00 | 26 | 1014.1 |
| 20260901095554 | 79 | 64 | 4.0 | 7.0 | 0.00 | 0.00 | 0.00 | 27 | 1014.1 |
| 20260901095054 | 79 | 65 | 2.0 | 7.0 | 0.00 | 0.00 | 0.00 | 28 | 1014.1 |
| 20260901094554 | 79 | 62 | 3.0 | 8.0 | 0.00 | 0.00 | 0.00 | 29 | 1014.1 |
| 20260901094054 | 79 | 63 | 7.0 | 8.0 | 0.00 | 0.00 | 0.00 | 29 | 1014.1 |
| 20260901093554 | 80 | 57 | 3.0 | 8.0 | 0.00 | 0.00 | 0.00 | 30 | 1014.2 |
| 20260901093054 | 80 | 76 | 4.0 | 8.0 | 0.00 | 0.00 | 0.00 | 30 | 1014.2 |
| 20260901092054 | 80 | 78 | 8.0 | 10.0 | 0.00 | 0.00 | 0.00 | 33 | 1014.1 |
| 20260901091554 | 80 | 86 | 5.0 | 10.0 | 0.00 | 0.00 | 0.00 | 33 | 1014.1 |
| 20260901091054 | 80 | 100 | 6.0 | 9.0 | 0.00 | 0.00 | 0.00 | 33 | 1014.0 |
| 20260901085554 | 81 | 90 | 5.0 | 9.0 | 0.00 | 0.00 | 0.00 | 35 | 1013.8 |
| 20260901085054 | 81 | 85 | 5.0 | 8.0 | 0.00 | 0.00 | 0.00 | 35 | 1014.0 |
| 20260901084554 | 81 | 78 | 4.0 | 10.0 | 0.00 | 0.00 | 0.00 | 35 | 1014.0 |
| 20260901083054 | 82 | 68 | 8.0 | 12.0 | 0.00 | 0.00 | 0.00 | 36 | 1014.3 |
| 20260901082554 | 82 | 73 | 4.0 | 12.0 | 0.00 | 0.00 | 0.00 | 36 | 1014.1 |
| 20260901082054 | 82 | 98 | 3.0 | 9.0 | 0.00 | 0.00 | 0.00 | 36 | 1014.1 |
| 20260901081554 | 83 | 71 | 3.0 | 10.0 | 0.00 | 0.00 | 0.00 | 35 | 1014.2 |
| 20260901081054 | 83 | 75 | 5.0 | 10.0 | 0.00 | 0.00 | 0.00 | 34 | 1014.2 |
| 20260901080554 | 83 | 74 | 7.0 | 10.0 | 0.00 | 0.00 | 0.00 | 29 | 1014.1 |
| 20260901080054 | 84 | 63 | 9.0 | 9.0 | 0.00 | 0.00 | 0.00 | 20 | 1014.3 |
| 20260901075054 | 84 | 132 | 3.0 | 6.0 | 0.00 | 0.00 | 0.00 | 15 | 1013.8 |
| 20260901074554 | 85 | 132 | 3.0 | 6.0 | 0.00 | 0.00 | 0.00 | 15 | 1013.9 |
| 20260901074054 | 85 | 144 | 3.0 | 8.0 | 0.00 | 0.00 | 0.00 | 15 | 1013.8 |
| 20260901073554 | 85 | 148 | 2.0 | 8.0 | 0.00 | 0.00 | 0.00 | 15 | 1013.8 |
| 20260901073054 | 85 | 128 | 1.0 | 7.0 | 0.00 | 0.00 | 0.00 | 14 | 1013.7 |
| 20260901072054 | 85 | 129 | 5.0 | 8.0 | 0.00 | 0.00 | 0.00 | 15 | 1013.7 |
| 20260901071554 | 85 | 113 | 4.0 | 8.0 | 0.00 | 0.00 | 0.00 | 15 | 1013.7 |
| 20260901071054 | 85 | 119 | 5.0 | 8.0 | 0.00 | 0.00 | 0.00 | 15 | 1013.5 |
| 20260901070054 | 85 | 111 | 2.0 | 7.0 | 0.00 | 0.00 | 0.00 | 15 | 1013.5 |
| 20260901065554 | 86 | 121 | 3.0 | 10.0 | 0.00 | 0.00 | 0.00 | 15 | 1013.0 |
| 20260901065054 | 86 | 130 | 4.0 | 10.0 | 0.00 | 0.00 | 0.00 | 15 | 1013.0 |
| 20260901064054 | 86 | 132 | 2.0 | 8.0 | 0.00 | 0.00 | 0.00 | 15 | 1012.8 |
| 20260901063554 | 86 | 119 | 3.0 | 8.0 | 0.00 | 0.00 | 0.00 | 16 | 1012.9 |
| 20260901063054 | 86 | 155 | 2.0 | 4.0 | 0.00 | 0.00 | 0.00 | 16 | 1012.9 |
| 20260901062554 | 86 | 165 | 2.0 | 4.0 | 0.00 | 0.00 | 0.00 | 17 | 1012.9 |
| 20260901062054 | 87 | 166 | 2.0 | 7.0 | 0.00 | 0.00 | 0.00 | 19 | 1012.9 |
| 20260901061554 | 87 | 166 | 2.0 | 9.0 | 0.00 | 0.00 | 0.00 | 24 | 1012.8 |
| 20260901061054 | 87 | 104 | 5.0 | 9.0 | 0.00 | 0.00 | 0.00 | 27 | 1012.8 |
| 20260901055553 | 87 | 130 | 5.0 | 7.0 | 0.00 | 0.00 | 0.00 | 30 | 1012.7 |
| 20260901054553 | 87 | 119 | 4.0 | 9.0 | 0.00 | 0.00 | 0.00 | 30 | 1012.7 |
| 20260901054054 | 88 | 171 | 6.0 | 11.0 | 0.00 | 0.00 | 0.00 | 31 | 1012.7 |
| 20260901053554 | 88 | 128 | 3.0 | 11.0 | 0.00 | 0.00 | 0.00 | 30 | 1012.8 |
| 20260901053053 | 88 | 165 | 2.0 | 11.0 | 0.00 | 0.00 | 0.00 | 30 | 1012.8 |
| 20260901052553 | 88 | 159 | 1.0 | 11.0 | 0.00 | 0.00 | 0.00 | 30 | 1012.7 |
| 20260901052054 | 88 | 119 | 3.0 | 11.0 | 0.00 | 0.00 | 0.00 | 30 | 1012.6 |
| 20260901051553 | 88 | 150 | 7.0 | 11.0 | 0.00 | 0.00 | 0.00 | 30 | 1012.6 |
| 20260901045555 | 88 | 153 | 5.0 | 16.0 | 0.00 | 0.00 | 0.00 | 31 | 1012.4 |
| 20260901045053 | 89 | 121 | 7.0 | 16.0 | 0.00 | 0.00 | 0.00 | 31 | 1012.5 |
| 20260901044554 | 89 | 360 | 3.0 | 16.0 | 0.00 | 0.00 | 0.00 | 31 | 1012.5 |
| 20260901044054 | 89 | 360 | 4.0 | 16.0 | 0.00 | 0.00 | 0.00 | 31 | 1012.7 |
| 20260901042553 | 89 | 360 | 9.0 | 11.0 | 0.00 | 0.00 | 0.00 | 33 | 1012.5 |
| 20260901041553 | 89 | 360 | 5.0 | 14.0 | 0.00 | 0.00 | 0.00 | 33 | 1012.3 |
| 20260901041054 | 90 | 360 | 2.0 | 11.0 | 0.00 | 0.00 | 0.00 | 33 | 1012.4 |
| 20260901040553 | 90 | 360 | 4.0 | 12.0 | 0.00 | 0.00 | 0.00 | 32 | 1012.2 |
| 20260901040053 | 90 | 360 | 5.0 | 12.0 | 0.00 | 0.00 | 0.00 | 32 | 1012.2 |
| 20260901035554 | 90 | 360 | 4.0 | 11.0 | 0.00 | 0.00 | 0.00 | 31 | 1012.1 |
| 20260901035053 | 90 | 360 | 3.0 | 10.0 | 0.00 | 0.00 | 0.00 | 27 | 1012.0 |
| 20260901034553 | 90 | 360 | 4.0 | 6.0 | 0.00 | 0.00 | 0.00 | 18 | 1011.9 |
| 20260901033554 | 90 | 360 | 0.0 | 3.0 | 0.00 | 0.00 | 0.00 | 17 | 1011.5 |
| 20260901033054 | 90 | 360 | 1.0 | 3.0 | 0.00 | 0.00 | 0.00 | 17 | 1011.5 |
| 20260901032054 | 91 | 360 | 2.0 | 3.0 | 0.00 | 0.00 | 0.00 | 17 | 1011.2 |
| 20260901031554 | 91 | 360 | 1.0 | 3.0 | 0.00 | 0.00 | 0.00 | 17 | 1011.2 |
| 20260901031053 | 91 | 360 | 1.0 | 4.0 | 0.00 | 0.00 | 0.00 | 16 | 1011.2 |
| 20260901030553 | 91 | 360 | 1.0 | 6.0 | 0.00 | 0.00 | 0.00 | 16 | 1011.1 |
| 20260901030053 | 92 | 360 | 3.0 | 6.0 | 0.00 | 0.00 | 0.00 | 16 | 1011.2 |
| 20260901025054 | 92 | 360 | 4.0 | 7.0 | 0.00 | 0.00 | 0.00 | 16 | 1010.8 |
| 20260901024553 | 92 | 360 | 2.0 | 7.0 | 0.00 | 0.00 | 0.00 | 16 | 1010.8 |
| 20260901024054 | 92 | 360 | 0.0 | 7.0 | 0.00 | 0.00 | 0.00 | 15 | 1010.9 |
| 20260901023553 | 92 | 360 | 2.0 | 7.0 | 0.00 | 0.00 | 0.00 | 15 | 1010.7 |
| 20260901023054 | 93 | 360 | 4.0 | 8.0 | 0.00 | 0.00 | 0.00 | 15 | 1010.8 |
| 20260901022554 | 93 | 360 | 2.0 | 8.0 | 0.00 | 0.00 | 0.00 | 15 | 1011.0 |
| 20260901022053 | 93 | 349 | 2.0 | 8.0 | 0.00 | 0.00 | 0.00 | 15 | 1010.9 |
| 20260901021553 | 93 | 360 | 7.0 | 10.0 | 0.00 | 0.00 | 0.00 | 15 | 1010.8 |
| 20260901021053 | 93 | 360 | 4.0 | 11.0 | 0.00 | 0.00 | 0.00 | 15 | 1010.8 |
| 20260901020053 | 94 | 360 | 6.0 | 11.0 | 0.00 | 0.00 | 0.00 | 15 | 1010.6 |
| 20260901015553 | 94 | 202 | 5.0 | 10.0 | 0.00 | 0.00 | 0.00 | 15 | 1010.0 |
| 20260901014553 | 94 | 200 | 9.0 | 18.0 | 0.00 | 0.00 | 0.00 | 15 | 1010.0 |
| 20260901014053 | 95 | 182 | 3.0 | 18.0 | 0.00 | 0.00 | 0.00 | 15 | 1010.1 |
| 20260901013553 | 95 | 205 | 7.0 | 15.0 | 0.00 | 0.00 | 0.00 | 15 | 1010.1 |
| 20260901013054 | 95 | 199 | 8.0 | 15.0 | 0.00 | 0.00 | 0.00 | 14 | 1009.9 |
| 20260901012553 | 95 | 207 | 15.0 | 15.0 | 0.00 | 0.00 | 0.00 | 15 | 1009.9 |
| 20260901012054 | 95 | 213 | 5.0 | 12.0 | 0.00 | 0.00 | 0.00 | 14 | 1009.8 |
| 20260901011054 | 96 | 183 | 4.0 | 15.0 | 0.00 | 0.00 | 0.00 | 14 | 1010.1 |
| 20260901010553 | 96 | 221 | 4.0 | 15.0 | 0.00 | 0.00 | 0.00 | 14 | 1010.1 |
| 20260901010054 | 96 | 181 | 3.0 | 11.0 | 0.00 | 0.00 | 0.00 | 14 | 1010.1 |
| 20260901005554 | 96 | 192 | 7.0 | 15.0 | 0.00 | 0.00 | 0.00 | 13 | 1010.0 |
| 20260901005053 | 97 | 204 | 7.0 | 15.0 | 0.00 | 0.00 | 0.00 | 14 | 1010.1 |
| 20260901004553 | 97 | 250 | 15.0 | 15.0 | 0.00 | 0.00 | 0.00 | 14 | 1010.0 |
| 20260901004053 | 97 | 180 | 2.0 | 15.0 | 0.00 | 0.00 | 0.00 | 14 | 1010.0 |
| 20260901003553 | 97 | 198 | 4.0 | 20.0 | 0.00 | 0.00 | 0.00 | 14 | 1010.1 |
| 20260901003054 | 97 | 222 | 5.0 | 20.0 | 0.00 | 0.00 | 0.00 | 13 | 1010.1 |
| 20260901002553 | 98 | 236 | 11.0 | 19.0 | 0.00 | 0.00 | 0.00 | 13 | 1010.1 |
| 20260901002053 | 98 | 215 | 6.0 | 15.0 | 0.00 | 0.00 | 0.00 | 14 | 1010.2 |
| 20260901001553 | 98 | 202 | 5.0 | 15.0 | 0.00 | 0.00 | 0.00 | 14 | 1010.1 |
| 20260901001053 | 98 | 187 | 7.0 | 16.0 | 0.00 | 0.00 | 0.00 | 14 | 1010.1 |
| 20260831235554 | 98 | 177 | 8.0 | 17.0 | 0.00 | 0.00 | 0.00 | 14 | 1010.0 |
| 20260831235054 | 98 | 173 | 12.0 | 17.0 | 0.00 | 0.00 | 0.00 | 14 | 1010.1 |
| 20260831234554 | 98 | 167 | 6.0 | 15.0 | 0.00 | 0.00 | 0.00 | 14 | 1010.1 |
| 20260831234053 | 99 | 173 | 12.0 | 13.0 | 0.00 | 0.00 | 0.00 | 15 | 1010.0 |
| 20260831233553 | 99 | 192 | 3.0 | 12.0 | 0.00 | 0.00 | 0.00 | 14 | 1010.0 |
| 20260831233053 | 99 | 180 | 3.0 | 11.0 | 0.00 | 0.00 | 0.00 | 15 | 1010.1 |
| 20260831232553 | 99 | 195 | 4.0 | 12.0 | 0.00 | 0.00 | 0.00 | 14 | 1010.0 |
| 20260831232053 | 99 | 165 | 7.0 | 12.0 | 0.00 | 0.00 | 0.00 | 14 | 1010.2 |
| 20260831231553 | 99 | 191 | 8.0 | 12.0 | 0.00 | 0.00 | 0.00 | 14 | 1010.3 |
| 20260831231053 | 99 | 202 | 8.0 | 12.0 | 0.00 | 0.00 | 0.00 | 14 | 1010.2 |
| 20260831230053 | 99 | 194 | 7.0 | 16.0 | 0.00 | 0.00 | 0.00 | 15 | 1010.3 |
| 20260831225553 | 99 | 195 | 6.0 | 16.0 | 0.00 | 0.00 | 0.00 | 15 | 1010.3 |
| 20260831225053 | 99 | 157 | 6.0 | 13.0 | 0.00 | 0.00 | 0.00 | 15 | 1010.3 |
| 20260831224053 | 99 | 190 | 4.0 | 19.0 | 0.00 | 0.00 | 0.00 | 15 | 1010.5 |
| 20260831223553 | 99 | 202 | 9.0 | 19.0 | 0.00 | 0.00 | 0.00 | 15 | 1010.5 |
| 20260831223053 | 100 | 178 | 4.0 | 13.0 | 0.00 | 0.00 | 0.00 | 15 | 1010.8 |
| 20260831222053 | 100 | 199 | 10.0 | 11.0 | 0.00 | 0.00 | 0.00 | 16 | 1010.8 |
| 20260831221053 | 99 | 169 | 3.0 | 15.0 | 0.00 | 0.00 | 0.00 | 15 | 1011.0 |
| 20260831220553 | 99 | 218 | 7.0 | 15.0 | 0.00 | 0.00 | 0.00 | 14 | 1011.1 |
| 20260831215553 | 99 | 189 | 5.0 | 16.0 | 0.00 | 0.00 | 0.00 | 15 | 1011.3 |
| 20260831215053 | 99 | 198 | 6.0 | 19.0 | 0.00 | 0.00 | 0.00 | 15 | 1011.5 |
| 20260831214053 | 99 | 194 | 13.0 | 13.0 | 0.00 | 0.00 | 0.00 | 15 | 1011.5 |
| 20260831213553 | 98 | 97 | 5.0 | 8.0 | 0.00 | 0.00 | 0.00 | 16 | 1011.7 |
| 20260831212053 | 98 | 226 | 12.0 | 18.0 | 0.00 | 0.00 | 0.00 | 16 | 1012.0 |
| 20260831211553 | 99 | 217 | 6.0 | 15.0 | 0.00 | 0.00 | 0.00 | 16 | 1012.1 |
| 20260831210553 | 99 | 212 | 9.0 | 16.0 | 0.00 | 0.00 | 0.00 | 15 | 1012.2 |
| 20260831210053 | 98 | 165 | 6.0 | 16.0 | 0.00 | 0.00 | 0.00 | 16 | 1012.3 |
| 20260831205553 | 98 | 160 | 8.0 | 16.0 | 0.00 | 0.00 | 0.00 | 16 | 1012.4 |
| 20260831205053 | 99 | 204 | 9.0 | 17.0 | 0.00 | 0.00 | 0.00 | 17 | 1012.4 |
| 20260831204553 | 99 | 197 | 5.0 | 18.0 | 0.00 | 0.00 | 0.00 | 18 | 1012.7 |
| 20260831204053 | 98 | 183 | 7.0 | 18.0 | 0.00 | 0.00 | 0.00 | 18 | 1012.8 |
| 20260831203553 | 97 | 186 | 6.0 | 13.0 | 0.00 | 0.00 | 0.00 | 18 | 1012.8 |
| 20260831202553 | 96 | 117 | 4.0 | 13.0 | 0.00 | 0.00 | 0.00 | 20 | 1012.8 |
| 20260831202053 | 95 | 214 | 2.0 | 11.0 | 0.00 | 0.00 | 0.00 | 22 | 1013.0 |
| 20260831201553 | 95 | 185 | 4.0 | 17.0 | 0.00 | 0.00 | 0.00 | 21 | 1012.9 |
| 20260831200553 | 96 | 107 | 4.0 | 15.0 | 0.00 | 0.00 | 0.00 | 22 | 1013.3 |
| 20260831200053 | 97 | 126 | 4.0 | 12.0 | 0.00 | 0.00 | 0.00 | 22 | 1013.4 |
| 20260831195053 | 95 | 148 | 3.0 | 13.0 | 0.00 | 0.00 | 0.00 | 21 | 1013.4 |
| 20260831194553 | 95 | 120 | 5.0 | 16.0 | 0.00 | 0.00 | 0.00 | 23 | 1013.6 |
| 20260831194053 | 95 | 135 | 4.0 | 16.0 | 0.00 | 0.00 | 0.00 | 23 | 1013.6 |
| 20260831193553 | 94 | 92 | 16.0 | 16.0 | 0.00 | 0.00 | 0.00 | 23 | 1013.7 |
| 20260831193053 | 95 | 151 | 4.0 | 13.0 | 0.00 | 0.00 | 0.00 | 23 | 1013.8 |
| 20260831192053 | 94 | 163 | 4.0 | 11.0 | 0.00 | 0.00 | 0.00 | 23 | 1013.8 |
| 20260831191052 | 94 | 146 | 4.0 | 13.0 | 0.00 | 0.00 | 0.00 | 24 | 1014.1 |
| 20260831190553 | 93 | 84 | 8.0 | 14.0 | 0.00 | 0.00 | 0.00 | 26 | 1013.9 |
| 20260831190052 | 93 | 155 | 6.0 | 15.0 | 0.00 | 0.00 | 0.00 | 25 | 1013.9 |
| 20260831185553 | 93 | 115 | 8.0 | 15.0 | 0.00 | 0.00 | 0.00 | 25 | 1014.2 |
| 20260831185052 | 94 | 114 | 4.0 | 14.0 | 0.00 | 0.00 | 0.00 | 25 | 1014.3 |
| 20260831184553 | 93 | 135 | 1.0 | 14.0 | 0.00 | 0.00 | 0.00 | 24 | 1014.1 |
| 20260831183052 | 93 | 109 | 10.0 | 13.0 | 0.00 | 0.00 | 0.00 | 24 | 1014.3 |
| 20260831182553 | 92 | 115 | 4.0 | 15.0 | 0.00 | 0.00 | 0.00 | 25 | 1014.1 |
| 20260831182053 | 92 | 122 | 9.0 | 15.0 | 0.00 | 0.00 | 0.00 | 24 | 1014.1 |
| 20260831181552 | 93 | 132 | 4.0 | 11.0 | 0.00 | 0.00 | 0.00 | 25 | 1014.2 |
| 20260831181052 | 92 | 101 | 10.0 | 15.0 | 0.00 | 0.00 | 0.00 | 25 | 1014.2 |
| 20260831180052 | 91 | 169 | 8.0 | 12.0 | 0.00 | 0.00 | 0.00 | 25 | 1014.2 |
| 20260831175553 | 91 | 123 | 3.0 | 13.0 | 0.00 | 0.00 | 0.00 | 24 | 1014.4 |
| 20260831175052 | 91 | 161 | 3.0 | 19.0 | 0.00 | 0.00 | 0.00 | 25 | 1014.4 |
| 20260831174554 | 91 | 137 | 7.0 | 19.0 | 0.00 | 0.00 | 0.00 | 26 | 1014.3 |
| 20260831174053 | 91 | 161 | 3.0 | 12.0 | 0.00 | 0.00 | 0.00 | 27 | 1014.6 |
| 20260831173553 | 90 | 130 | 1.0 | 14.0 | 0.00 | 0.00 | 0.00 | 26 | 1014.4 |
| 20260831173053 | 90 | 103 | 9.0 | 15.0 | 0.00 | 0.00 | 0.00 | 27 | 1014.3 |
| 20260831172552 | 90 | 117 | 3.0 | 15.0 | 0.00 | 0.00 | 0.00 | 27 | 1014.5 |
| 20260831172053 | 90 | 79 | 8.0 | 13.0 | 0.00 | 0.00 | 0.00 | 27 | 1014.5 |
| 20260831171553 | 90 | 123 | 4.0 | 13.0 | 0.00 | 0.00 | 0.00 | 28 | 1014.5 |
| 20260831171053 | 90 | 86 | 10.0 | 15.0 | 0.00 | 0.00 | 0.00 | 28 | 1014.4 |
| 20260831170552 | 89 | 85 | 6.0 | 15.0 | 0.00 | 0.00 | 0.00 | 28 | 1014.5 |
| 20260831170052 | 90 | 88 | 7.0 | 13.0 | 0.00 | 0.00 | 0.00 | 29 | 1014.4 |
| 20260831165553 | 89 | 87 | 9.0 | 12.0 | 0.00 | 0.00 | 0.00 | 29 | 1014.6 |
| 20260831165053 | 89 | 121 | 8.0 | 12.0 | 0.00 | 0.00 | 0.00 | 29 | 1014.5 |
| 20260831164554 | 89 | 105 | 2.0 | 12.0 | 0.00 | 0.00 | 0.00 | 28 | 1014.3 |
| 20260831164052 | 88 | 118 | 9.0 | 13.0 | 0.00 | 0.00 | 0.00 | 27 | 1014.2 |
| 20260831163052 | 88 | 113 | 13.0 | 17.0 | 0.00 | 0.00 | 0.00 | 27 | 1014.3 |
| 20260831162553 | 87 | 103 | 9.0 | 10.0 | 0.00 | 0.00 | 0.00 | 31 | 1014.3 |
| 20260831162052 | 87 | 111 | 7.0 | 10.0 | 0.00 | 0.00 | 0.00 | 28 | 1014.4 |
| 20260831161552 | 86 | 121 | 5.0 | 11.0 | 0.00 | 0.00 | 0.00 | 27 | 1014.2 |
| 20260831161053 | 86 | 136 | 4.0 | 11.0 | 0.00 | 0.00 | 0.00 | 27 | 1014.3 |
| 20260831160552 | 86 | 150 | 3.0 | 8.0 | 0.00 | 0.00 | 0.00 | 27 | 1014.4 |
| 20260831160052 | 86 | 117 | 2.0 | 15.0 | 0.00 | 0.00 | 0.00 | 28 | 1014.4 |
| 20260831155553 | 86 | 103 | 3.0 | 15.0 | 0.00 | 0.00 | 0.00 | 27 | 1014.5 |
| 20260831155052 | 86 | 118 | 2.0 | 10.0 | 0.00 | 0.00 | 0.00 | 26 | 1014.5 |
| 20260831154552 | 85 | 98 | 8.0 | 9.0 | 0.00 | 0.00 | 0.00 | 27 | 1014.4 |
| 20260831154052 | 85 | 360 | 1.0 | 9.0 | 0.00 | 0.00 | 0.00 | 27 | 1014.3 |
| 20260831153552 | 84 | 360 | 3.0 | 9.0 | 0.00 | 0.00 | 0.00 | 27 | 1014.2 |
| 20260831152553 | 84 | 360 | 4.0 | 8.0 | 0.00 | 0.00 | 0.00 | 27 | 1014.1 |
| 20260831152052 | 84 | 360 | 1.0 | 8.0 | 0.00 | 0.00 | 0.00 | 28 | 1014.1 |
| 20260831150552 | 84 | 360 | 3.0 | 8.0 | 0.00 | 0.00 | 0.00 | 29 | 1014.0 |
| 20260831150053 | 83 | 360 | 8.0 | 8.0 | 0.00 | 0.00 | 0.00 | 30 | 1013.9 |
| 20260831145552 | 83 | 360 | 4.0 | 6.0 | 0.00 | 0.00 | 0.00 | 30 | 1013.9 |
| 20260831144552 | 82 | 360 | 2.0 | 7.0 | 0.00 | 0.00 | 0.00 | 31 | 1013.9 |
| 20260831144053 | 82 | 360 | 6.0 | 7.0 | 0.00 | 0.00 | 0.00 | 31 | 1013.9 |
| 20260831143552 | 81 | 360 | 4.0 | 7.0 | 0.00 | 0.00 | 0.00 | 32 | 1013.7 |
| 20260831142553 | 80 | 78 | 4.0 | 7.0 | 0.00 | 0.00 | 0.00 | 34 | 1013.5 |
| 20260831142052 | 78 | 74 | 3.0 | 7.0 | 0.00 | 0.00 | 0.00 | 35 | 1013.3 |
| 20260831141553 | 77 | 78 | 4.0 | 5.0 | 0.00 | 0.00 | 0.00 | 37 | 1012.9 |
| 20260831140552 | 77 | 78 | 2.0 | 4.0 | 0.00 | 0.00 | 0.00 | 37 | 1012.8 |
| 20260831140053 | 76 | 78 | 2.0 | 6.0 | 0.00 | 0.00 | 0.00 | 37 | 1012.8 |
| 20260831135552 | 77 | 78 | 3.0 | 6.0 | 0.00 | 0.00 | 0.00 | 37 | 1013.0 |
| 20260831135053 | 77 | 78 | 3.0 | 4.0 | 0.00 | 0.00 | 0.00 | 36 | 1012.9 |
| 20260831134552 | 77 | 78 | 2.0 | 3.0 | 0.00 | 0.00 | 0.00 | 36 | 1012.8 |
| 20260831134053 | 77 | 78 | 1.0 | 2.0 | 0.00 | 0.00 | 0.00 | 34 | 1012.6 |
| 20260831133552 | 77 | 78 | 1.0 | 3.0 | 0.00 | 0.00 | 0.00 | 34 | 1012.7 |
| 20260831133053 | 77 | 78 | 2.0 | 3.0 | 0.00 | 0.00 | 0.00 | 33 | 1012.5 |
| 20260831132052 | 77 | 78 | 1.0 | 4.0 | 0.00 | 0.00 | 0.00 | 33 | 1012.5 |
| 20260831131552 | 77 | 78 | 0.0 | 4.0 | 0.00 | 0.00 | 0.00 | 33 | 1012.5 |
| 20260831130552 | 77 | 78 | 2.0 | 4.0 | 0.00 | 0.00 | 0.00 | 33 | 1012.4 |
| 20260831130052 | 76 | 78 | 1.0 | 4.0 | 0.00 | 0.00 | 0.00 | 33 | 1012.1 |
| 20260831125552 | 76 | 78 | 1.0 | 5.0 | 0.00 | 0.00 | 0.00 | 33 | 1012.3 |
| 20260831125052 | 76 | 78 | 2.0 | 6.0 | 0.00 | 0.00 | 0.00 | 33 | 1012.3 |
| 20260831124552 | 76 | 78 | 4.0 | 6.0 | 0.00 | 0.00 | 0.00 | 34 | 1012.2 |
| 20260831123552 | 75 | 71 | 3.0 | 4.0 | 0.00 | 0.00 | 0.00 | 34 | 1011.9 |
| 20260831123052 | 75 | 71 | 2.0 | 3.0 | 0.00 | 0.00 | 0.00 | 35 | 1012.0 |
| 20260831122552 | 75 | 71 | 2.0 | 3.0 | 0.00 | 0.00 | 0.00 | 34 | 1011.9 |
| 20260831122052 | 75 | 71 | 1.0 | 2.0 | 0.00 | 0.00 | 0.00 | 34 | 1012.0 |
| 20260831121552 | 75 | 71 | 1.0 | 2.0 | 0.00 | 0.00 | 0.00 | 34 | 1012.0 |
| 20260831121052 | 75 | 71 | 0.0 | 5.0 | 0.00 | 0.00 | 0.00 | 34 | 1011.9 |
| 20260831120552 | 74 | 71 | 1.0 | 5.0 | 0.00 | 0.00 | 0.00 | 34 | 1011.9 |
| 20260831120053 | 74 | 67 | 3.0 | 4.0 | 0.00 | 0.00 | 0.00 | 34 | 1011.9 |
| 20260831115552 | 74 | 64 | 2.0 | 3.0 | 0.00 | 0.00 | 0.00 | 34 | 1011.9 |
| 20260831115052 | 74 | 64 | 2.0 | 3.0 | 0.00 | 0.00 | 0.00 | 34 | 1011.8 |
| 20260831114052 | 74 | 355 | 2.0 | 3.0 | 0.00 | 0.00 | 0.00 | 33 | 1011.8 |
| 20260831113552 | 74 | 303 | 0.0 | 3.0 | 0.00 | 0.00 | 0.00 | 33 | 1011.7 |
| 20260831113052 | 74 | 303 | 3.0 | 3.0 | 0.00 | 0.00 | 0.00 | 32 | 1011.7 |